Home   Weather   New Westminster   Past weeks

Flag for Canada Past Weather in New Westminster, British Columbia, Canada — Yesterday and Last 2 Weeks

Now
35 °F

Chilly.


Feels Like: 35 °F
Forecast: 34 / 47 °F
Wind: 1 mph from Southeast

Location: P. Meadows Coastal Station

Current Time: Jan 23, 2017 at 11:04:21 am

Latest Report: Jan 23, 2017 at 10:00 am


Visibility: N/A

Pressure: 29.84 "Hg

Humidity: 94%

Dew Point: 33 °F

Location of New WestminsterLocation

Past Weather in New Westminster — Graph

°F

New Westminster Temperature Yesterday

Maximum temperature yesterday: 44 °F (at 12:00 pm)
Minimum temperature yesterday: 31 °F (at 7:00 am)
Average temperature yesterday: 39 °F

High & Low Weather Summary for the Past Weeks

 TemperatureHumidityPressure
High52 °F (Jan 18, 3:00 pm)100% (Jan 18, 3:00 am)30.49 "Hg (Jan 18, 3:00 am)
Low15 °F (Jan 12, 6:00 am)38% (Jan 11, 2:00 am)29.13 "Hg (Jan 20, 3:00 pm)
Average34 °F84%29.79 "Hg
* Reported Jan 8 9:00 am — Jan 23 9:00 am, New Westminster, Weather by CustomWeather, © 2017

Note: Actual official high and low records may vary slightly from our data, if they occured in-between our weather recording intervals... More about our weather records

Advertising

New Westminster Weather History for the Previous 24 Hours

Scroll right to see more
 ConditionsComfort  
Time TempWeatherWind HumidityBarometerVisibility
9:00 am
Mon, Jan 23
31 °FChilly.1 mph96%29.82 "HgN/A
8:00 am29 °FChilly.1 mph96%29.80 "HgN/A
7:00 am31 °FChilly.No wind90%29.77 "HgN/A
6:00 am31 °FChilly.1 mph96%29.75 "HgN/A
5:00 am31 °FChilly.1 mph96%29.72 "HgN/A
4:00 am31 °FChilly.2 mph96%29.70 "HgN/A
3:00 am33 °FChilly.3 mph93%29.68 "HgN/A
2:00 am32 °FChilly.No wind100%29.67 "HgN/A
1:00 am31 °FChilly.No wind96%29.65 "HgN/A
12:00 am33 °FChilly.No wind95%29.65 "HgN/A
11:00 pm
Sun, Jan 22
33 °FChilly.2 mph95%29.65 "HgN/A
10:00 pm34 °FChilly.1 mph90%29.64 "HgN/A
9:00 pm37 °FChilly.1 mph93%29.62 "HgN/A
8:00 pm38 °FChilly.1 mph86%29.62 "HgN/A
7:00 pm39 °FChilly.2 mph91%29.60 "HgN/A
6:00 pm41 °FQuite cool.8 mph90%29.60 "HgN/A
5:00 pm41 °FQuite cool.7 mph89%29.59 "HgN/A
4:00 pm41 °FQuite cool.8 mph91%29.58 "HgN/A
3:00 pm42 °FQuite cool.5 mph90%29.58 "HgN/A
2:00 pm40 °FQuite cool.7 mph95%29.55 "HgN/A
1:00 pm43 °FQuite cool.5 mph85%29.55 "HgN/A
12:00 pm44 °FQuite cool.5 mph76%29.53 "HgN/A
11:00 am42 °FQuite cool.3 mph77%29.50 "HgN/A
Weather by CustomWeather, © 2017

See weather overviewHow to use our weather pages